Probability
6 77 100 100 90 87 81 97 97 100 100 100 100 100 100 100 100 100 100 100 100 100 100 94 94 94 90 90 97 97 100 97 97 97 100 100 100 100 100 100 94 81 100
6 81 100 100 97 87 84 90 97 100 100 100 100 100 100 100 100 100 100 100 100 100 100 90 90 87 77 87 94 97 100 97 97 97 97 97 97 97 97 100 94 94 100
29 87 100 100 100 90 84 90 97 100 100 100 100 100 100 100 100 100 100 100 100 100 100 90 81 71 71 77 87 97 97 97 97 97 97 97 97 97 97 97 97 100 97
61 94 100 100 100 97 84 87 94 100 100 100 100 100 100 100 100 100 100 100 100 97 97 90 77 65 68 68 77 87 87 97 97 94 77 94 97 97 97 97 97 97 94
74 94 97 100 100 100 90 97 97 97 100 100 100 97 97 97 97 97 100 100 100 97 97 90 77 68 68 65 68 77 84 84 87 74 23 42 55 97 97 97 97 97 97
84 94 97 100 100 100 97 97 100 100 100 100 100 97 97 97 97 97 97 97 97 97 90 84 77 74 65 58 58 58 58 68 68 39 13 13 13 87 97 94 97 97 97
81 94 100 100 100 100 100 100 97 100 100 100 100 100 100 100 100 100 100 100 100 97 84 81 81 74 68 58 58 48 39 35 13 13 6 3 6 48 97 97 97 97 97
84 97 100 100 100 100 100 100 100 100 100 100 100 100 100 100 100 100 100 100 100 100 100 97 97 90 90 81 74 65 55 42 10 3 0 0 0 19 77 100 100 100 97
90 97 100 100 100 100 100 100 100 100 100 100 100 100 100 100 100 100 100 100 100 100 100 100 100 100 100 100 97 94 90 77 45 32 26 10 6 26 84 100 100 100 100
90 100 100 100 100 100 100 100 100 100 100 100 100 100 100 100 100 100 100 100 100 100 100 100 100 100 100 100 100 100 100 100 94 61 48 39 45 61 94 100 100 100 100
97 100 100 100 100 100 100 100 100 100 100 100 100 100 100 100 100 100 100 100 100 100 100 100 100 100 100 100 100 100 100 100 97 94 94 87 94 97 97 100 100 100 100
90 100 100 100 100 100 100 100 100 100 100 100 100 100 100 100 100 100 100 100 100 100 100 100 100 100 100 100 100 100 100 100 97 97 94 97 97 100 100 100 100 97 100
58 94 100 100 100 100 90 87 100 100 100 100 100 100 100 100 100 100 100 100 100 100 97 100 100 100 100 100 97 97 97 97 97 97 94 97 100 97 100 100 94 94 97
35 65 81 87 84 84 81 71 74 94 97 100 100 100 94 94 90 90 90 87 90 90 90 97 97 97 100 97 94 94 94 94 94 94 90 94 94 97 94 94 94 94 94
29 39 45 58 58 58 52 42 52 68 81 84 87 87 87 90 84 77 81 74 68 74 71 74 81 81 74 77 87 94 90 94 90 90 87 87 90 90 94 97 94 94 90
39 19 23 45 42 39 39 35 35 55 58 65 77 77 81 87 74 65 68 52 45 45 45 42 48 48 52 58 58 68 71 77 87 87 87 84 84 90 94 90 87 87 90
35 23 23 23 19 16 19 29 32 39 42 45 61 74 74 77 74 68 55 42 32 26 26 23 23 23 29 29 29 29 35 52 55 58 77 81 74 74 87 90 90 90 84
23 16 13 19 19 16 19 16 10 26 29 32 29 45 52 61 52 52 48 29 19 13 13 13 6 10 10 10 10 10 13 13 26 35 39 48 55 58 68 84 87 87 81
19 6 6 10 6 10 6 3 6 19 16 16 23 26 39 39 45 39 29 19 16 6 6 6 3 0 0 0 3 3 3 3 10 10 19 32 39 39 42 45 61 84 87
13 10 10 6 3 3 6 6 6 6 6 10 13 13 13 16 29 23 16 16 6 6 6 3 3 0 0 0 0 0 0 0 0 3 3 10 19 23 35 35 58 61 74
6 6 6 3 3 3 6 6 6 6 6 6 10 10 10 6 6 13 13 10 6 6 6 0 0 0 0 0 0 0 0 0 0 0 0 0 6 10 6 16 26 29 45
3 3 6 3 3 3 3 6 0 0 0 0 0 0 3 6 6 6 3 3 3 6 0 0 0 0 0 0 0 0 0 0 0 0 0 0 0 0 0 3 6 13 26
0 0 0 0 0 0 0 0 0 0 0 0 0 0 0 0 0 3 3 3 3 0 0 0 0 0 0 0 0 0 0 0 0 0 0 0 0 0 0 0 6 10 16
0 0 0 0 0 0 0 0 0 0 0 0 0 0 0 0 0 0 0 0 0 0 0 0 0 0 0 0 0 0 0 0 0 0 0 0 0 0 0 0 0 3 6
0 0 0 0 0 0 0 0 0 0 0 0 0 0 0 0 0 0 0 0 0 0 0 0 0 0 0 0 0 0 0 0 0 0 0 0 0 0 0 0 0 0 0
0 0 0 0 0 0 0 0 0 0 0 0 0 0 0 0 0 0 0 0 0 0 0 0 0 0 0 0 0 0 0 0 0 0 0 0 0 0 0 0 0 0 0
Height
5906 5906 5906 5905 5905 5904 5902 5901 5900 5899 5899 5898 5898 5897 5897 5897 5896 5896 5896 5896 5895 5895 5895 5895 5894 5894 5893 5893 5892 5891 5891 5891 5890 5890 5890 5890 5890 5890 5890 5891 5892 5892 5893
5906 5906 5906 5905 5904 5903 5902 5901 5900 5899 5898 5898 5898 5897 5897 5897 5896 5896 5896 5896 5896 5895 5895 5895 5894 5894 5893 5893 5892 5892 5892 5891 5891 5891 5891 5890 5891 5891 5891 5892 5893 5893 5894
5906 5906 5905 5905 5904 5903 5902 5900 5899 5899 5898 5898 5897 5897 5897 5896 5896 5896 5896 5895 5895 5895 5895 5894 5894 5894 5894 5893 5893 5892 5892 5892 5891 5891 5891 5891 5891 5892 5892 5892 5893 5894 5894
5906 5905 5905 5904 5903 5902 5901 5900 5899 5898 5897 5897 5896 5896 5896 5896 5895 5895 5895 5895 5895 5894 5894 5894 5894 5894 5893 5893 5893 5892 5892 5892 5892 5891 5891 5892 5892 5892 5892 5893 5893 5894 5894
5905 5905 5904 5903 5902 5901 5900 5899 5898 5897 5897 5896 5895 5895 5895 5895 5895 5894 5894 5894 5894 5893 5893 5893 5893 5893 5893 5893 5892 5892 5892 5892 5892 5892 5892 5892 5892 5892 5892 5893 5893 5893 5894
5905 5904 5904 5902 5901 5900 5899 5898 5897 5896 5896 5895 5895 5894 5894 5894 5893 5893 5893 5892 5892 5892 5892 5892 5892 5892 5892 5892 5891 5891 5891 5891 5891 5891 5891 5891 5891 5892 5892 5892 5892 5893 5893
5904 5904 5903 5901 5900 5899 5898 5897 5896 5895 5894 5894 5893 5893 5892 5892 5891 5891 5890 5890 5890 5890 5890 5890 5890 5890 5890 5890 5890 5889 5889 5890 5890 5890 5890 5890 5890 5890 5891 5891 5891 5892 5893
5904 5903 5901 5900 5898 5897 5896 5895 5894 5893 5893 5892 5891 5890 5890 5889 5889 5888 5888 5887 5887 5887 5887 5887 5887 5888 5888 5888 5888 5888 5887 5887 5888 5888 5888 5888 5888 5889 5889 5890 5890 5891 5891
5902 5901 5900 5898 5897 5896 5894 5893 5892 5891 5890 5889 5888 5888 5887 5886 5886 5885 5885 5885 5884 5884 5884 5884 5884 5884 5884 5884 5885 5885 5885 5885 5885 5885 5885 5886 5886 5886 5887 5888 5888 5889 5890
5900 5899 5898 5897 5895 5894 5892 5891 5890 5889 5887 5886 5885 5884 5884 5883 5883 5882 5882 5881 5881 5881 5880 5880 5880 5880 5880 5881 5881 5882 5882 5882 5882 5882 5882 5883 5883 5884 5885 5885 5886 5887 5888
5898 5897 5895 5894 5892 5891 5890 5888 5887 5885 5884 5883 5882 5881 5880 5879 5879 5878 5877 5877 5877 5877 5876 5876 5876 5876 5876 5876 5877 5877 5878 5878 5878 5878 5879 5879 5880 5881 5882 5882 5883 5884 5885
5895 5894 5892 5890 5889 5887 5886 5884 5882 5881 5879 5878 5877 5876 5875 5875 5874 5873 5873 5872 5872 5872 5872 5872 5872 5871 5871 5872 5872 5872 5873 5873 5874 5874 5875 5875 5876 5877 5878 5879 5880 5881 5882
5891 5889 5888 5886 5884 5883 5881 5879 5877 5876 5874 5872 5871 5870 5870 5869 5869 5868 5867 5867 5867 5867 5867 5867 5867 5867 5867 5867 5867 5868 5868 5868 5869 5869 5870 5871 5871 5872 5873 5874 5876 5877 5878
5886 5884 5882 5880 5878 5876 5874 5873 5871 5869 5867 5865 5864 5864 5863 5863 5862 5862 5862 5861 5861 5861 5861 5861 5862 5862 5862 5862 5862 5863 5863 5863 5864 5864 5865 5866 5866 5867 5868 5869 5871 5872 5873
5881 5879 5876 5874 5871 5869 5866 5864 5862 5860 5858 5856 5856 5856 5855 5855 5856 5856 5855 5855 5855 5855 5856 5856 5856 5857 5857 5857 5857 5858 5858 5858 5859 5859 5860 5861 5861 5862 5863 5864 5866 5867 5868
5875 5873 5870 5867 5864 5861 5858 5855 5853 5851 5849 5848 5847 5846 5847 5847 5848 5848 5849 5849 5849 5849 5849 5850 5851 5851 5851 5852 5852 5852 5853 5853 5854 5854 5855 5856 5856 5857 5858 5859 5860 5862 5863
5869 5866 5863 5859 5856 5852 5850 5846 5843 5841 5839 5839 5838 5837 5838 5839 5840 5841 5841 5842 5843 5843 5843 5844 5845 5845 5846 5846 5847 5848 5848 5849 5850 5850 5851 5851 5852 5853 5853 5854 5855 5856 5857
5862 5859 5856 5852 5848 5844 5841 5837 5833 5830 5829 5829 5828 5827 5828 5829 5831 5833 5834 5835 5836 5837 5837 5838 5839 5840 5840 5841 5841 5843 5843 5844 5845 5846 5846 5847 5847 5848 5849 5849 5850 5851 5851
5855 5852 5849 5844 5840 5836 5831 5826 5822 5820 5818 5818 5818 5818 5820 5822 5823 5825 5826 5827 5828 5830 5831 5832 5833 5834 5834 5835 5836 5837 5839 5839 5841 5842 5842 5843 5843 5844 5844 5845 5845 5845 5846
5848 5844 5840 5835 5832 5828 5823 5818 5813 5812 5810 5809 5811 5811 5812 5814 5816 5818 5819 5820 5821 5823 5824 5825 5827 5828 5829 5830 5831 5832 5834 5835 5836 5837 5838 5839 5839 5840 5840 5840 5840 5840 5841
5840 5837 5833 5829 5826 5821 5817 5813 5809 5807 5805 5805 5807 5807 5808 5809 5810 5811 5812 5814 5815 5816 5817 5818 5820 5821 5823 5824 5825 5827 5828 5830 5831 5832 5834 5835 5836 5836 5836 5836 5836 5836 5836
5832 5829 5825 5821 5818 5816 5812 5809 5807 5805 5804 5803 5802 5802 5803 5803 5804 5805 5807 5807 5808 5809 5810 5811 5813 5814 5816 5818 5819 5821 5823 5825 5826 5827 5829 5830 5831 5832 5832 5832 5832 5832 5832
5824 5820 5816 5813 5811 5809 5807 5805 5804 5802 5801 5799 5798 5798 5798 5798 5798 5798 5799 5800 5801 5802 5803 5804 5806 5807 5809 5811 5812 5815 5816 5818 5820 5822 5823 5825 5826 5827 5827 5828 5828 5827 5827
5816 5813 5810 5806 5803 5801 5800 5799 5798 5796 5795 5794 5793 5792 5792 5791 5791 5791 5792 5793 5794 5794 5795 5797 5798 5800 5802 5804 5805 5807 5810 5811 5813 5815 5817 5819 5820 5821 5822 5822 5822 5822 5822
5808 5804 5801 5798 5795 5793 5791 5789 5788 5787 5786 5785 5785 5784 5784 5783 5783 5783 5783 5784 5785 5786 5787 5789 5790 5792 5794 5796 5798 5800 5802 5804 5806 5808 5809 5812 5813 5814 5816 5816 5816 5816 5816
5799 5796 5792 5789 5786 5784 5781 5779 5777 5776 5774 5774 5773 5773 5773 5773 5773 5773 5773 5774 5775 5776 5777 5779 5781 5783 5785 5787 5790 5792 5794 5797 5799 5801 5802 5804 5805 5807 5809 5810 5810 5810 5809
Wind_Speed
4 4 4 5 6 6 5 5 5 5 5 5 6 6 7 8 9 9 10 10 10 10 10 10 10 9 9 8 8 7 6 6 6 6 6 7 7 8 7 7 7 7 8
6 6 6 7 7 6 6 6 5 5 4 4 4 5 5 6 6 7 8 8 8 8 8 8 9 9 8 8 7 6 5 5 4 4 5 5 5 6 6 6 6 7 7
7 7 8 9 8 8 7 7 6 6 5 5 4 4 5 5 6 6 7 7 7 7 7 7 7 7 7 7 6 5 4 3 3 3 3 3 4 4 5 6 6 6 7
8 9 10 10 10 9 8 8 8 7 7 6 6 5 5 6 6 7 7 7 7 7 6 6 6 6 6 6 5 4 3 2 1 1 1 2 3 4 5 6 6 6 6
10 11 12 12 11 10 10 9 9 9 9 8 8 8 7 7 8 8 8 8 8 8 7 7 6 6 6 6 5 5 3 2 1 1 2 3 4 5 5 6 6 7 6
11 12 13 13 12 11 11 11 11 11 11 11 10 10 10 10 10 10 11 11 10 10 9 9 8 8 7 7 6 6 5 4 3 2 3 3 4 5 6 6 6 6 6
12 13 13 13 13 12 13 13 14 13 13 13 13 13 13 13 13 13 13 13 13 12 12 11 11 11 10 9 9 8 7 6 6 5 4 4 5 6 6 7 7 7 7
13 14 14 14 13 14 14 14 15 15 15 16 16 16 16 17 17 17 16 16 16 15 15 15 15 14 14 13 12 12 11 10 9 8 7 6 6 7 7 7 8 8 8
14 14 15 15 15 15 16 16 17 17 18 18 18 19 19 19 19 19 19 19 19 18 18 18 18 17 17 16 15 15 14 14 13 13 11 10 9 9 9 9 9 9 9
14 16 17 17 18 18 18 19 20 20 20 20 20 21 21 21 21 21 21 21 21 21 20 20 20 20 19 19 18 17 17 17 17 16 15 14 12 12 11 11 11 11 11
17 18 20 21 22 21 21 21 22 22 23 23 23 23 22 22 22 22 22 22 22 21 21 21 21 21 21 20 20 20 19 19 19 19 18 17 16 15 14 13 13 13 13
20 22 24 25 25 25 26 26 26 25 25 25 25 25 24 23 23 23 23 22 22 22 21 21 21 21 21 21 21 20 20 20 21 21 20 19 19 19 17 17 16 16 16
24 25 27 28 29 29 30 30 30 30 29 28 28 27 26 25 25 24 23 23 23 22 21 21 21 21 22 22 21 21 21 21 21 21 22 22 21 21 21 21 20 20 19
26 28 29 30 31 32 33 34 33 33 32 31 30 30 29 28 27 25 24 23 24 23 22 21 21 21 21 22 22 22 21 21 21 21 20 21 21 22 23 22 22 23 24
29 31 32 33 35 35 34 35 36 35 35 33 33 32 31 29 28 27 26 25 24 24 23 23 22 22 21 21 21 21 21 22 21 20 20 20 20 21 22 23 24 24 25
32 33 34 36 39 39 37 37 38 37 36 37 36 34 33 31 30 29 28 27 26 25 24 23 23 22 22 21 20 20 20 20 19 18 18 18 19 20 21 22 22 24 25
32 33 36 38 40 40 40 39 38 37 39 38 37 37 35 33 30 29 28 27 26 24 24 23 23 22 22 20 20 19 18 18 17 17 17 17 17 18 19 20 21 22 23
32 34 37 39 40 41 42 43 41 38 38 36 35 34 33 31 30 28 27 27 25 25 24 23 22 22 21 21 20 19 18 17 17 16 16 16 16 16 17 17 19 21 22
35 36 38 40 41 42 42 40 39 36 34 33 31 29 31 31 29 29 28 26 25 24 24 23 22 22 21 20 20 20 19 18 18 17 16 16 15 15 16 16 17 18 20
36 38 39 40 41 41 38 37 34 30 29 29 27 26 27 29 29 28 26 25 23 23 24 23 22 21 21 21 21 21 21 20 19 18 17 16 15 15 15 15 15 17 19
39 40 42 41 40 37 34 31 29 26 23 24 25 24 24 26 26 25 24 25 24 24 24 24 23 22 22 22 22 22 22 21 21 20 19 17 16 15 15 15 15 16 17
41 41 41 41 39 37 33 30 28 25 21 21 23 24 25 26 25 25 25 25 25 25 25 25 25 24 24 23 23 23 23 22 22 21 20 19 18 16 16 15 15 16 17
42 42 39 39 38 37 34 32 30 28 27 25 24 24 26 26 27 27 27 26 26 26 26 26 26 26 26 25 25 24 24 24 24 23 22 20 19 18 18 17 16 16 17
40 40 39 38 38 38 36 35 33 31 31 30 29 28 27 28 29 29 28 28 28 28 28 29 28 28 28 28 27 27 26 26 25 25 24 23 21 20 19 19 19 18 19
36 36 36 37 38 38 39 39 38 36 35 35 34 33 32 32 32 31 31 31 31 31 32 32 32 32 31 31 30 30 29 28 28 27 26 25 23 22 21 21 21 20 20
35 35 36 38 39 40 42 42 42 42 41 41 40 39 39 38 38 37 37 37 37 37 36 36 36 36 35 34 34 33 32 31 30 28 28 27 26 24 23 22 22 22 21
Wind_Direction
289 298 309 312 316 326 340 356 14 33 42 42 37 31 28 26 24 23 23 26 29 32 37 41 45 50 54 57 60 63 67 71 78 87 98 106 110 114 117 120 122 125 130
284 294 302 302 304 310 321 331 343 354 5 13 17 16 13 11 9 8 9 11 14 18 24 30 34 41 46 49 51 56 62 68 76 83 93 106 116 123 128 131 133 135 138
288 297 301 299 300 303 311 319 324 328 331 334 339 344 345 343 342 344 348 351 355 359 4 12 18 24 31 36 40 41 47 58 70 86 102 119 135 144 147 148 149 149 150
298 302 300 298 299 301 304 309 312 313 312 310 309 311 314 316 317 320 324 328 332 336 341 348 357 2 8 13 18 21 23 28 42 85 142 166 172 174 174 170 165 165 165
310 306 302 299 299 300 302 303 303 302 299 296 293 294 298 301 303 305 307 309 311 313 316 321 327 332 338 343 346 348 348 345 329 275 222 200 199 197 192 187 181 178 177
313 308 303 301 302 303 302 301 298 295 291 289 288 288 290 292 293 295 297 298 299 299 299 301 304 307 309 314 318 320 318 310 298 276 254 233 219 212 207 201 193 187 185
313 309 306 306 306 306 304 302 297 293 289 286 284 283 284 285 286 288 289 290 291 292 291 291 293 294 294 295 297 299 300 296 290 282 265 253 241 231 223 215 209 203 198
311 310 310 309 309 308 306 302 297 292 288 285 283 282 282 282 282 283 283 284 285 286 286 286 287 288 288 287 287 287 289 289 287 283 276 265 255 246 238 230 222 217 213
309 311 312 312 311 309 305 302 298 292 287 284 282 281 280 280 280 281 281 281 281 280 281 281 282 283 283 283 282 282 282 283 283 281 277 271 264 257 250 242 235 228 223
304 306 309 310 310 307 303 301 298 292 287 284 281 280 279 279 279 279 280 279 278 277 277 277 278 279 280 280 279 278 277 277 277 277 275 271 268 264 258 249 243 237 233
299 302 304 304 305 304 300 297 294 291 287 284 282 280 279 279 279 278 279 278 277 276 275 274 273 275 276 277 278 276 275 274 273 272 272 270 267 264 262 254 248 244 240
297 297 298 298 298 298 296 293 290 287 284 282 280 279 278 278 277 277 278 278 276 275 273 272 271 272 272 273 275 275 274 273 272 269 269 268 265 261 259 256 250 246 244
297 295 294 296 296 295 292 290 287 284 282 280 278 277 277 277 276 275 276 277 276 274 272 271 269 269 269 270 271 273 271 271 270 269 268 266 264 261 259 257 253 249 246
295 295 294 294 293 293 289 288 286 282 281 278 275 274 274 272 272 272 274 276 276 273 271 270 269 268 268 269 269 269 269 269 269 269 268 265 263 261 260 258 255 253 248
296 296 296 296 293 291 288 286 283 279 275 272 270 269 269 267 267 269 271 273 274 272 271 270 270 269 269 269 269 268 269 268 268 267 267 266 264 262 262 262 260 257 254
294 296 296 295 294 293 288 286 283 278 278 273 268 264 263 263 262 266 269 271 272 270 269 269 269 269 269 269 268 267 266 266 264 263 266 266 266 265 264 263 263 263 259
292 293 294 296 298 296 293 289 283 281 280 277 266 260 259 259 262 265 267 269 271 270 269 267 267 267 267 266 265 264 263 261 260 260 263 265 267 267 267 265 264 263 260
290 293 295 296 297 298 297 294 289 284 278 274 265 255 253 255 259 265 265 268 267 268 267 264 264 264 263 260 259 259 259 258 257 260 263 266 268 269 270 270 269 266 262
291 293 294 295 296 297 297 298 292 287 277 270 261 255 252 253 257 263 264 265 264 263 261 259 259 258 257 256 254 254 254 254 255 259 263 267 269 273 274 274 273 270 267
293 293 294 296 299 300 299 300 294 287 279 269 263 261 258 257 257 262 264 262 261 258 256 256 254 252 252 252 251 251 251 251 252 254 258 263 267 274 279 280 278 276 271
291 292 294 295 297 301 302 304 303 296 287 270 264 265 266 263 261 261 263 261 259 257 256 254 251 249 248 248 249 249 248 249 250 253 256 259 263 269 276 280 282 281 277
288 292 293 291 295 299 304 305 305 301 294 281 273 272 273 268 265 264 264 260 258 256 256 254 250 248 247 247 248 248 248 248 249 252 255 258 262 267 272 277 282 285 283
289 290 289 291 291 294 299 300 300 298 296 292 288 285 279 275 270 266 264 262 257 255 255 253 249 247 247 247 245 246 247 248 250 251 253 257 262 266 270 274 280 285 286
289 289 289 291 290 291 293 294 293 293 291 289 286 283 278 276 274 268 264 261 259 257 255 252 250 249 247 246 244 244 245 247 251 254 253 256 261 267 271 274 278 284 287
293 293 290 290 289 290 290 290 289 287 286 284 282 280 277 274 272 268 265 262 260 259 256 253 251 249 248 248 245 243 244 246 249 253 256 258 261 265 270 274 278 282 286
298 298 294 292 290 290 289 288 286 285 284 282 279 276 272 269 267 265 263 262 260 259 256 253 252 250 248 248 246 244 244 245 247 250 255 260 263 265 268 272 277 281 285